Location: Unspecified
(17.6330°N, 0.0000°E)
Time: 10:49:40
(UTC+00:00)

S-56A Canister/Altair - Pass Details

Date: 29 June 2019
Orbit: 633 x 2499 km, 38.9° (Epoch: 15 October)

Event Time Altitude Azimuth Distance (km) Brightness Sun altitude
Rises 11:29:42 0° 233° (SW) 6,134 12.0 80.3°
Reaches altitude 10° 11:33:41 10° 233° (SW) 5,157 11.8 81.1°
Maximum altitude 11:48:57 85° 322° (NW) 2,290 12.8 83.5°
Drops below altitude 10° 12:00:55 10° 51° (NE) 4,158 11.5 84.4°
Sets 12:03:47 0° 52° (NE) 4,931 11.7 84.4°
